Location: Newark
(41.8083°N, 72.2500°W)
Time: 07:51:08
(UTC+00:00)

Transit 2A - All Passes

Search period start: 03 December 2021 00:00
Search period end: 13 December 2021 00:00
Orbit: 591 x 967 km, 66.7° (Epoch: 02 December)

Date Brightness Start Highest point End Pass type
(mag) Time Alt. Az. Time Alt. Az. Time Alt. Az.
03 Dec - 04:13:12 10° S 04:18:14 38° ESE 04:23:45 10° NE night (unlit)
03 Dec - 05:56:12 10° WSW 06:01:28 38° NW 06:07:12 10° NNE night (unlit)
03 Dec - 07:45:15 10° NW 07:46:39 11° NNW 07:48:04 10° NNW visible
03 Dec - 11:18:09 10° N 11:20:02 11° NNE 11:21:56 10° NE visible
03 Dec - 12:59:14 10° NNW 13:05:12 39° NE 13:10:56 10° ESE daylight
03 Dec - 14:42:37 10° NW 14:48:31 41° WSW 14:54:07 10° S daylight
04 Dec - 03:39:43 10° SSE 03:44:14 26° ESE 03:49:06 10° NE night (unlit)
04 Dec - 05:21:35 10° SW 05:27:04 52° NW 05:33:06 10° NNE night (unlit)
04 Dec - 07:09:02 10° WNW 07:11:54 13° NNW 07:14:51 10° N visible
04 Dec - 12:25:12 10° NNW 12:30:45 30° NE 12:36:07 10° ESE daylight
04 Dec - 14:08:10 10° NW 14:14:25 58° WSW 14:20:19 10° SSE daylight
05 Dec - 03:06:39 10° SE 03:10:18 18° ESE 03:14:09 10° ENE night (unlit)
05 Dec - 04:47:09 10° SW 04:52:45 72° WNW 04:58:55 10° NNE night (unlit)
05 Dec - 06:33:27 10° WNW 06:37:13 17° NW 06:41:09 10° N night (unlit)
05 Dec - 11:51:12 10° N 11:56:13 23° NE 12:01:06 10° E daylight
05 Dec - 13:33:50 10° NNW 13:40:15 81° WSW 13:46:18 10° SSE daylight
05 Dec - 15:19:52 10° WNW 15:22:27 13° W 15:24:57 10° SW daylight
06 Dec - 02:34:29 10° ESE 02:36:25 12° E 02:38:24 10° E night (unlit)
06 Dec - 04:12:55 10° SSW 04:18:30 83° ESE 04:24:41 10° NNE night (unlit)
06 Dec - 05:58:10 10° W 06:02:36 22° NW 06:07:17 10° N night (unlit)
06 Dec - 11:17:18 10° N 11:21:37 18° NE 11:25:51 10° E visible
06 Dec - 12:59:35 10° NNW 13:06:01 75° ENE 13:12:05 10° SE daylight
06 Dec - 14:44:19 10° WNW 14:48:32 19° WSW 14:52:37 10° SW daylight
07 Dec - 03:38:54 10° SSW 03:44:21 58° ESE 03:50:22 10° NE night (unlit)
07 Dec - 05:23:08 10° WSW 05:28:03 28° NW 05:33:20 10° NNE night (unlit)
07 Dec - 10:43:32 10° N 10:46:57 15° NNE 10:50:20 10° ENE visible
07 Dec - 12:25:25 10° NNW 12:31:42 55° NE 12:37:40 10° SE daylight
07 Dec - 14:09:24 10° NW 14:14:34 27° WSW 14:19:31 10° SSW daylight
08 Dec - 03:05:05 10° S 03:10:16 41° ESE 03:15:55 10° NE night (unlit)
08 Dec - 04:48:17 10° WSW 04:53:34 36° NW 04:59:17 10° NNE night (unlit)
08 Dec - 06:37:44 10° NW 06:38:49 10° NNW 06:39:55 10° NNW night (unlit)
08 Dec - 10:10:01 10° N 10:12:13 12° NNE 10:14:24 10° NE visible
08 Dec - 11:51:18 10° NNW 11:57:19 41° NE 12:03:04 10° ESE daylight
08 Dec - 13:34:46 10° NW 13:40:34 38° WSW 13:46:02 10° S daylight
09 Dec - 02:31:32 10° SSE 02:36:15 28° ESE 02:41:19 10° NE night (unlit)
09 Dec - 04:13:38 10° SW 04:19:09 49° NW 04:25:12 10° NNE night (unlit)
09 Dec - 06:01:20 10° WNW 06:04:03 13° NNW 06:06:51 10° N night (unlit)
09 Dec - 11:17:15 10° NNW 11:22:52 31° NE 11:28:17 10° ESE visible
09 Dec - 13:00:18 10° NW 13:06:29 54° WSW 13:12:17 10° S daylight
10 Dec - 01:58:22 10° SSE 02:02:18 20° ESE 02:06:27 10° ENE night (unlit)
10 Dec - 03:39:11 10° SW 03:44:50 68° WNW 03:51:02 10° NNE night (unlit)
10 Dec - 05:25:40 10° WNW 05:29:21 16° NW 05:33:11 10° N night (unlit)
10 Dec - 10:43:15 10° N 10:48:21 24° NE 10:53:18 10° E visible
10 Dec - 12:25:57 10° NNW 12:32:19 76° WSW 12:38:18 10° SSE daylight
10 Dec - 14:12:29 10° W 14:14:26 12° W 14:16:20 10° WSW daylight
11 Dec - 01:25:53 10° SE 01:28:24 13° E 01:30:59 10° ENE night (unlit)
11 Dec - 03:04:55 10° SSW 03:10:34 88° ESE 03:16:48 10° NNE night (unlit)
11 Dec - 04:50:21 10° W 04:54:43 21° NW 04:59:20 10° N night (unlit)
11 Dec - 10:09:20 10° N 10:13:46 19° NE 10:18:06 10° E visible
11 Dec - 11:51:41 10° NNW 11:58:06 79° ENE 12:04:07 10° SSE daylight
11 Dec - 13:36:36 10° WNW 13:40:33 18° WSW 13:44:20 10° SW daylight
12 Dec - 02:30:50 10° SSW 02:36:23 63° ESE 02:42:29 10° NE night (unlit)
12 Dec - 04:15:15 10° W 04:20:10 27° NW 04:25:24 10° NNE night (unlit)
12 Dec - 09:35:31 10° N 09:39:06 15° NNE 09:42:38 10° ENE visible
12 Dec - 11:17:30 10° NNW 11:23:48 58° NE 11:29:45 10° SE visible
12 Dec - 13:01:36 10° NW 13:06:36 25° WSW 13:11:21 10° SSW daylight
